Weather History for Ahoskie, NC

Change the Weather History Date:

Tuesday, January 29, 2013

  Actual Average (KEMV) Record (KEMV)
Temperature  
Mean Temperature 58 °F -  
Max Temperature 72 °F 48 °F 71 °F (2013)
Min Temperature 45 °F 22 °F 5 °F (2014)
Degree Days  
Heating Degree Days 6    
Growing Degree Days 8 (Base 50)    
Moisture  
Dew Point 50 °F    
Average Humidity 77    
Maximum Humidity 92    
Minimum Humidity 47    
Precipitation  
Precipitation 0.00 in - - ()
Sea Level Pressure  
Sea Level Pressure 30.15 in    
Wind  
Wind Speed 1 mph (South)    
Max Wind Speed 6 mph    
Max Gust Speed -    
Visibility 9 miles    
Events      
Averages and records for this station are not official NWS values.
T = Trace of Precipitation, MM = Missing Value Source: NWS Daily Summary

Daily Weather History Graph

Daily Weather History Graph

Search for Another Location

Airport:

Trip Planner

Search our weather history database for the weather conditions in past years. The results will help you decide how hot, cold, wet, or windy it might be!

Date:

Astronomy

Jan. 29, 2013 Rise Set
Actual Time 7:11 AM EST 5:32 PM EST
Civil Twilight 6:44 AM EST 5:59 PM EST
Nautical Twilight 6:13 AM EST 6:30 PM EST
Astronomical Twilight 5:43 AM EST 7:00 PM EST
Moon 8:19 PM EST (1/29) 8:13 AM EST (1/29)
Length of Visible Light 11h 14m
Length of Day
10h 20m
Waning Gibbous, 94% of the Moon is Illuminated
Jan 29
Waning Gibbous
Feb 3
Last Quarter
Feb 10
New
Feb 17
First Quarter
Feb 25
Full

Hourly Weather History & Observations

Time (EST) Temp. Dew Point Humidity Pressure Visibility Wind Dir Wind Speed Gust Speed Precip Events Conditions
12:15 AM 50.0 °F 45.5 °F 85% 30.20 in 10.0 mi SW 3.5 mph - N/A   Scattered Clouds
12:35 AM 50.0 °F 45.7 °F 85% 30.19 in 10.0 mi Calm Calm - N/A   Scattered Clouds
12:55 AM 50.0 °F 45.5 °F 85% 30.19 in 10.0 mi Calm Calm - N/A   Mostly Cloudy
1:15 AM 50.0 °F 46.2 °F 87% 30.19 in 10.0 mi Calm Calm - N/A   Scattered Clouds
1:35 AM 47.5 °F 43.9 °F 87% 30.19 in 10.0 mi Calm Calm - N/A   Clear
1:55 AM 48.6 °F 45.5 °F 89% 30.18 in 10.0 mi SSW 3.5 mph - N/A   Clear
2:15 AM 47.5 °F 44.4 °F 89% 30.19 in 10.0 mi Calm Calm - N/A   Clear
2:35 AM 46.0 °F 43.2 °F 90% 30.19 in 10.0 mi Calm Calm - N/A   Clear
2:55 AM 46.6 °F 43.5 °F 89% 30.18 in 10.0 mi Calm Calm - N/A   Clear
3:15 AM 45.7 °F 43.0 °F 90% 30.18 in 7.0 mi Calm Calm - N/A   Clear
3:35 AM 46.4 °F 43.7 °F 90% 30.18 in 7.0 mi Calm Calm - N/A   Scattered Clouds
3:55 AM 47.5 °F 45.0 °F 91% 30.17 in 7.0 mi Calm Calm - N/A   Mostly Cloudy
4:15 AM 50.0 °F 47.3 °F 90% 30.17 in 7.0 mi Calm Calm - N/A   Scattered Clouds
4:35 AM 50.0 °F 47.3 °F 90% 30.17 in 7.0 mi Calm Calm - N/A   Scattered Clouds
4:55 AM 50.0 °F 47.1 °F 90% 30.16 in 7.0 mi Calm Calm - N/A   Mostly Cloudy
5:15 AM 50.0 °F 47.1 °F 90% 30.17 in 7.0 mi Calm Calm - N/A   Scattered Clouds
5:35 AM 50.0 °F 47.1 °F 90% 30.17 in 7.0 mi Calm Calm - N/A   Clear
5:55 AM 47.5 °F 44.8 °F 90% 30.17 in 7.0 mi Calm Calm - N/A   Clear
6:15 AM 47.5 °F 44.8 °F 90% 30.17 in 7.0 mi Calm Calm - N/A   Clear
6:35 AM 46.4 °F 43.7 °F 90% 30.18 in 7.0 mi Calm Calm - N/A   Clear
6:55 AM 45.1 °F 42.8 °F 91% 30.19 in 5.0 mi Calm Calm - N/A   Clear
7:15 AM 46.8 °F 44.2 °F 91% 30.19 in 5.0 mi Calm Calm - N/A   Clear
7:35 AM 46.4 °F 43.7 °F 90% 30.19 in 4.0 mi Calm Calm - N/A   Clear
7:55 AM 47.5 °F 45.1 °F 92% 30.19 in 5.0 mi Calm Calm - N/A   Clear
8:15 AM 50.0 °F 47.3 °F 90% 30.19 in 5.0 mi Calm Calm - N/A   Clear
8:35 AM 50.0 °F 46.8 °F 89% 30.20 in 7.0 mi Calm Calm - N/A   Clear
8:55 AM 52.7 °F 48.7 °F 86% 30.20 in 7.0 mi Calm Calm - N/A   Scattered Clouds
9:15 AM 52.7 °F 48.2 °F 85% 30.19 in 10.0 mi Calm Calm - N/A   Scattered Clouds
9:35 AM 55.0 °F 49.3 °F 81% 30.19 in 10.0 mi Calm Calm - N/A   Clear
9:55 AM 56.3 °F 49.5 °F 78% 30.19 in 10.0 mi Calm Calm - N/A   Clear
10:15 AM 58.3 °F 50.2 °F 74% 30.19 in 10.0 mi Calm Calm - N/A   Clear
10:35 AM 61.2 °F 50.9 °F 69% 30.19 in 10.0 mi Calm Calm - N/A   Clear
10:55 AM 65.3 °F 53.1 °F 65% 30.18 in 10.0 mi Calm Calm - N/A   Scattered Clouds
11:15 AM 65.3 °F 52.2 °F 62% 30.18 in 10.0 mi SSW 3.5 mph - N/A   Scattered Clouds
11:35 AM 65.3 °F 52.5 °F 63% 30.17 in 10.0 mi Calm Calm - N/A   Scattered Clouds
11:55 AM 65.3 °F 52.0 °F 62% 30.16 in 10.0 mi Calm Calm - N/A   Clear
12:15 PM 65.3 °F 50.9 °F 60% 30.15 in 10.0 mi Calm Calm - N/A   Clear
12:35 PM 67.6 °F 52.0 °F 57% 30.14 in 10.0 mi Calm Calm - N/A   Clear
12:55 PM 70.0 °F 53.1 °F 55% 30.13 in 10.0 mi SW 3.5 mph - N/A   Clear
1:15 PM 70.0 °F 53.1 °F 55% 30.12 in 10.0 mi Calm Calm - N/A   Clear
1:35 PM 70.0 °F 52.7 °F 54% 30.11 in 10.0 mi Calm Calm - N/A   Clear
1:55 PM 70.7 °F 50.7 °F 49% 30.11 in 10.0 mi Calm Calm - N/A   Clear
2:15 PM 70.0 °F 50.5 °F 50% 30.10 in 10.0 mi Calm Calm - N/A   Clear
2:35 PM 72.5 °F 51.8 °F 48% 30.09 in 10.0 mi Calm Calm - N/A   Clear
2:55 PM 72.5 °F 51.8 °F 48% 30.10 in 10.0 mi Calm Calm - N/A   Clear
3:15 PM 72.5 °F 50.9 °F 47% 30.09 in 10.0 mi Calm Calm - N/A   Clear
3:35 PM 72.5 °F 51.3 °F 47% 30.10 in 10.0 mi SSW 3.5 mph - N/A   Clear
3:55 PM 72.3 °F 53.2 °F 51% 30.10 in 10.0 mi Calm Calm - N/A   Clear
4:15 PM 70.0 °F 51.6 °F 52% 30.10 in 10.0 mi South 5.8 mph - N/A   Clear
4:35 PM 70.0 °F 53.6 °F 56% 30.10 in 10.0 mi SSW 3.5 mph - N/A   Clear
4:55 PM 70.0 °F 55.0 °F 59% 30.11 in 10.0 mi Calm Calm - N/A   Clear
5:15 PM 67.5 °F 54.3 °F 63% 30.11 in 10.0 mi South 3.5 mph - N/A   Clear
5:35 PM 65.3 °F 53.2 °F 65% 30.11 in 10.0 mi South 3.5 mph - N/A   Clear
5:55 PM 65.3 °F 56.1 °F 72% 30.11 in 10.0 mi SSE 3.5 mph - N/A   Clear
6:15 PM 61.3 °F 54.3 °F 78% 30.11 in 10.0 mi SSE 3.5 mph - N/A   Clear
6:35 PM 62.2 °F 55.2 °F 78% 30.11 in 10.0 mi SSE 3.5 mph - N/A   Clear
6:55 PM 58.6 °F 52.9 °F 81% 30.11 in 10.0 mi SSE 4.6 mph - N/A   Clear
7:15 PM 60.1 °F 54.1 °F 81% 30.10 in 10.0 mi SSE 3.5 mph - N/A   Clear
7:35 PM 58.1 °F 52.7 °F 82% 30.11 in 10.0 mi South 3.5 mph - N/A   Clear
7:55 PM 57.6 °F 52.5 °F 83% 30.10 in 10.0 mi SSE 5.8 mph - N/A   Clear
8:15 PM 56.3 °F 51.6 °F 84% 30.10 in 10.0 mi SSE 5.8 mph - N/A   Clear
8:35 PM 57.6 °F 52.5 °F 83% 30.10 in 10.0 mi SSE 5.8 mph - N/A   Clear
8:55 PM 57.6 °F 52.3 °F 83% 30.10 in 10.0 mi SSE 4.6 mph - N/A   Clear
9:15 PM 58.1 °F 52.7 °F 82% 30.10 in 10.0 mi South 4.6 mph - N/A   Clear
9:35 PM 57.6 °F 52.7 °F 84% 30.11 in 10.0 mi South 4.6 mph - N/A   Clear
9:55 PM 57.4 °F 52.5 °F 84% 30.11 in 10.0 mi South 4.6 mph - N/A   Clear
10:15 PM 56.3 °F 51.8 °F 85% 30.10 in 10.0 mi South 5.8 mph - N/A   Clear
10:35 PM 56.3 °F 52.2 °F 86% 30.10 in 10.0 mi South 5.8 mph - N/A   Clear
10:55 PM 58.5 °F 52.9 °F 82% 30.11 in 10.0 mi South 4.6 mph - N/A   Clear
11:15 PM 59.4 °F 53.8 °F 82% 30.11 in 10.0 mi South 4.6 mph - N/A   Clear
11:35 PM 60.1 °F 54.5 °F 82% 30.11 in 10.0 mi SSW 4.6 mph - N/A   Clear
11:55 PM 60.1 °F 54.5 °F 82% 30.10 in 10.0 mi South 4.6 mph - N/A   Clear